Location: *
(50.6089°N, 2.2719°E)
Time: 16:54:38
(UTC+00:00)

Cosmos 2100 Rocket - Pass Details

Date: 18 October 2019
Orbit: 955 x 1002 km, 82.9° (Epoch: 21 November)

Event Time Altitude Azimuth Distance (km) Brightness Sun altitude
Rises 18:11:35 0° 354° (N) 3,680 7.1 -13.1°
Reaches altitude 10° 18:14:19 10° 2° (N) 2,722 6.3 -13.5°
Maximum altitude 18:20:05 38° 70° (ENE) 1,423 4.4 -14.5°
Enters shadow 18:25:37 11° 137° (SE) 2,634 5.8 -15.3°
